Markham, Ontario

11:33 AM EDT on October 19, 2017 (GMT -0400)
Markham

Weather History for CYKZ - July, 2013

Change the Weather History Date:

Tuesday, July 23, 2013

  Actual Average Record
Temperature  
Mean Temperature 70 °F -  
Max Temperature 82 °F 77 °F 94 °F (2012)
Min Temperature 57 °F 58 °F 50 °F (2000)
Cooling Degree Days 4    
Growing Degree Days 20 (Base 50)    
Moisture  
Dew Point 60 °F    
Average Humidity 72    
Maximum Humidity 94    
Minimum Humidity 52    
Precipitation  
Precipitation 0.28 in - - ()
Sea Level Pressure  
Sea Level Pressure 29.69 in    
Wind  
Wind Speed 6 mph ()    
Max Wind Speed 24 mph    
Max Gust Speed 32 mph    
Visibility 13.2 miles    
Events Rain , Thunderstorm    
Averages and records for this station are not official NWS values.
T = Trace of Precipitation, MM = Missing Value Source: Averaged Metar Reports

Daily Weather History Graph

Daily Weather History Graph

Search for Another Location

Airport or City:

Trip Planner

Search our weather history database for the weather conditions in past years. The results will help you decide how hot, cold, wet, or windy it might be!

Date:

Astronomy

Jul. 23, 2013 Rise Set
Actual Time 5:56 AM EDT 8:50 PM EDT
Civil Twilight 5:22 AM EDT 9:24 PM EDT
Nautical Twilight 4:39 AM EDT 10:07 PM EDT
Astronomical Twilight 3:49 AM EDT 10:57 PM EDT
Moon 9:11 PM EDT (7/23) 7:07 AM EDT (7/23)
Length of Visible Light 16h 01m
Length of Day
14h 53m
Full, 99% of the Moon is Illuminated
Jul 23
Full
Jul 29
Last Quarter
Aug 6
New
Aug 14
First Quarter
Aug 20
Full

Hourly Weather History & Observations

Time (EDT) Temp. Heat Index Dew Point Humidity Pressure Visibility Wind Dir Wind Speed Gust Speed Precip Events Conditions
12:00 AM 64.4 °F - 57.2 °F 77% 29.80 in 15.0 mi NNE 4.6 mph - N/A   Overcast
1:00 AM 62.6 °F - 55.4 °F 77% 29.79 in 15.0 mi NNW 2.3 mph - N/A   Partly Cloudy
2:00 AM 61 °F - 56 °F 79% 29.77 in 15 mi North 2.3 mph - -  
2:00 AM 60.8 °F - 55.4 °F 82% 29.77 in 15.0 mi NNW 2.3 mph - N/A   Clear
3:00 AM 60.8 °F - 55.4 °F 82% 29.75 in 15.0 mi NW 2.3 mph - N/A   Clear
4:00 AM 59.0 °F - 55.4 °F 88% 29.74 in 15.0 mi NNW 3.5 mph - N/A   Clear
5:00 AM 59.0 °F - 57.2 °F 94% 29.72 in 15.0 mi NNW 3.5 mph - N/A   Partly Cloudy
6:00 AM 57.2 °F - 55.4 °F 94% 29.72 in 15.0 mi Calm Calm - N/A   Partly Cloudy
7:00 AM 62.6 °F - 59.0 °F 88% 29.72 in 15.0 mi Calm Calm - N/A   Partly Cloudy
8:00 AM 69 °F - 61 °F 70% 29.70 in 15 mi Calm Calm - -   Clear
8:00 AM 68.0 °F - 60.8 °F 78% 29.70 in 15.0 mi SSE 2.3 mph - N/A   Partly Cloudy
9:00 AM 73.4 °F - 62.6 °F 69% 29.70 in 15.0 mi WSW 3.5 mph - N/A   Scattered Clouds
10:00 AM 75.2 °F - 62.6 °F 65% 29.70 in 15.0 mi West 5.8 mph - N/A   Scattered Clouds
11:00 AM 78.8 °F - 64.4 °F 61% 29.67 in 15.0 mi SSW 5.8 mph - N/A   Scattered Clouds
12:00 PM 82.4 °F 83.9 °F 64.4 °F 54% 29.64 in 15.0 mi SW 5.8 mph - N/A   Scattered Clouds
1:00 PM 82.4 °F 84.6 °F 66.2 °F 58% 29.63 in 12.0 mi South 11.5 mph - N/A   Mostly Cloudy
2:00 PM 81 °F - 66 °F 52% 29.62 in 12 mi SW 8.1 mph - -   Overcast
2:00 PM 80.6 °F 82.7 °F 66.2 °F 61% 29.62 in 12.0 mi SW 13.8 mph 20.7 mph N/A   Overcast
2:14 PM - - - N/A% - 12.0 mi WSW 9.2 mph 21.9 mph N/A Thunderstorm Thunderstorm
2:39 PM - - - N/A% - 12.0 mi WSW 8.1 mph 17.3 mph N/A   Overcast
3:00 PM 80.6 °F 82.7 °F 66.2 °F 61% 29.63 in 12.0 mi West 15.0 mph - N/A   Overcast
4:00 PM 80.6 °F 82.3 °F 64.4 °F 58% 29.62 in 15.0 mi West 9.2 mph - N/A   Mostly Cloudy
4:47 PM - - - N/A% - 15.0 mi WSW 10.4 mph - N/A Rain Light Rain Showers
5:00 PM 77.0 °F - 69.8 °F 78% 29.61 in 15.0 mi West 5.8 mph - N/A   Mostly Cloudy
5:18 PM - - - N/A% - 8.0 mi West 5.8 mph - N/A Rain , Thunderstorm Light Thunderstorms and Rain
5:23 PM - - - N/A% - 1.0 mi NW 24.2 mph 32.2 mph N/A Rain , Thunderstorm Heavy Thunderstorms and Rain
5:25 PM - - - N/A% - 0.5 mi NNW 18.4 mph 32.2 mph N/A Rain , Thunderstorm Heavy Thunderstorms and Rain
5:28 PM - - - N/A% - 3.0 mi NNW 18.4 mph 32.2 mph N/A Rain , Thunderstorm Thunderstorms and Rain
5:36 PM - - - N/A% - 10.0 mi North 16.1 mph - N/A Rain , Thunderstorm Light Thunderstorms and Rain
5:42 PM - - - N/A% - 15.0 mi North 17.3 mph - N/A Thunderstorm Thunderstorm
6:00 PM 68.0 °F - 62.6 °F 83% 29.66 in 15.0 mi NNW 15.0 mph - N/A Thunderstorm Thunderstorm
6:10 PM - - - N/A% - 15.0 mi NNW 15.0 mph 20.7 mph N/A   Mostly Cloudy
6:30 PM - - - N/A% - 15.0 mi NNW 15.0 mph - N/A   Mostly Cloudy
7:00 PM 68.0 °F - 55.4 °F 64% 29.67 in 15.0 mi NW 13.8 mph 19.6 mph N/A   Mostly Cloudy
8:00 PM 67 °F - 56 °F 58% 29.66 in 15 mi NW 12.7 mph - -   Partly Cloudy
8:00 PM 66.2 °F - 55.4 °F 68% 29.66 in 15.0 mi NW 12.7 mph 19.6 mph N/A   Mostly Cloudy
9:00 PM 66.2 °F - 55.4 °F 68% 29.68 in 15.0 mi WNW 10.4 mph - N/A   Partly Cloudy
10:00 PM 62.6 °F - 51.8 °F 68% 29.72 in 15.0 mi NW 5.8 mph - N/A   Partly Cloudy
11:00 PM 60.8 °F - 53.6 °F 77% 29.73 in 15.0 mi West 4.6 mph - N/A   Partly Cloudy